Weather in Yurino

Russia / Udmurt Republic     56°22′21″N   53°22′33″E
temp.,
°C
wind,
m/s
gust,
m/s
humid.,
%
clouds,
%
prec.,
mm/h
press.,
hPa
HPBL,
m
25 october, mon
mon2501:00+4wsw5967100 0.0 1012513
04:00+4wsw3772100 0.0 1012315
07:00+3wsw2574100 0.0 1012186
10:00+4w4570100 0.0 1013690
13:00+4wnw578298 0.1 1014793
16:00+2nnw61082100 0.7 1016935
19:000nnw612705 0.1 1019604
22:00−2nw410825 0.1 1021375
26 october, tue
tue2601:00−3wnw49835 0.0 1022299
04:00−3wsw378386 0.0 1023225
07:00−2sw41077100 0.0 1022334
10:00+1sw7126399 0.0 1022857
13:00+2sw8136094 0.1 10201014
16:00+2wsw7137196 0.1 1019903
19:00+2wsw6127072 0.0 1019726
22:00+1wsw5107671 0.0 1020413
27 october, wed
wed2701:00+1sw5977100 0.0 1019368
04:000sw5985100 0.0 1019283
07:00−1sw498957 0.0 1019281
10:00+1sw6978100 0.0 1019445
13:00+3sw6968100 0.0 1018642
16:00+3sw61169100 0.0 1017641
19:00+2sw61373100 0.0 1016495
22:00+3sw61369100 0.0 1014490
28 october, thu
thu2801:00+2sw61473100 0.0 1012460
04:00+3sw71570100 0.0 1010628
07:00+1sw81697100 0.9 1008733
10:00+3wsw91597100 2.2 10081060
13:00+6w101677100 0.4 10091106
16:00+5w81385100 0.4 1010854
19:00+4w71292100 0.0 1012805
22:00+4w61186100 0.1 1012730
29 october, fri
fri2901:00+4wsw61288100 0.1 1011487
04:00+4wnw61091100 0.3 1011915
07:00−1nnw611715 0.2 1014726
10:00−2nnw796483 0.2 1017875
13:00−1nnw795798 0.0 10201054
16:00−1n696387 0.0 10231040
19:00−3n59725 0.0 1027639
22:00−4n48765 0.0 1030425